This is the latest recevied weather packets stored in our database for station/object N5PRN. If no packets are shown the sender has not sent any weather packets the latest 10 day(s).
| Time | Temp. | Humidity | Pressure | Rain* | Wind** | Luminosity | Snow |
|---|---|---|---|---|---|---|---|
| 1777532490 | 19.44° C | 99% | 1012.4 hPa | 0 mm | - | 0 W/m² | - |
| 1777532187 | 19.44° C | 99% | 1012.2 hPa | 0 mm | - | 0 W/m² | - |
| 1777531884 | 19.44° C | 99% | 1012.3 hPa | 0 mm | - | 0 W/m² | - |
| 1777531580 | 19.44° C | 99% | 1012.5 hPa | 0 mm | - | 0 W/m² | - |
| 1777531277 | 19.44° C | 99% | 1012.5 hPa | 0 mm | - | 0 W/m² | - |
| 1777530975 | 19.44° C | 99% | 1012.4 hPa | 0 mm | - | 0 W/m² | - |
| 1777530672 | 19.44° C | 99% | 1012.2 hPa | 0 mm | - | 0 W/m² | - |
| 1777530369 | 19.44° C | 99% | 1012.1 hPa | 0 mm | - | 0 W/m² | - |
| 1777530065 | 19.44° C | 99% | 1012.1 hPa | 0 mm | - | 0 W/m² | - |
| 1777529763 | 19.44° C | 99% | 1012 hPa | 0 mm | - | 0 W/m² | - |
| 1777529459 | 19.44° C | 99% | 1012 hPa | 0 mm | - | 0 W/m² | - |
| 1777529156 | 19.44° C | 99% | 1011.9 hPa | 0 mm | - | 0 W/m² | - |
| 1777528852 | 19.44° C | 99% | 1012.1 hPa | 0 mm | - | 0 W/m² | - |
| 1777528549 | 19.44° C | 99% | 1012.1 hPa | 0 mm | - | 0 W/m² | - |
| 1777528246 | 19.44° C | 99% | 1012.1 hPa | 0 mm | - | 0 W/m² | - |
| 1777527944 | 19.44° C | 99% | 1012.7 hPa | 3.05 mm | - | 0 W/m² | - |
| 1777527640 | 18.89° C | 99% | 1012.5 hPa | 6.1 mm | - | 0 W/m² | - |
| 1777527335 | 18.89° C | 99% | 1011.9 hPa | 4.83 mm | - | 0 W/m² | - |
| 1777527031 | 18.89° C | 99% | 1012.4 hPa | 3.05 mm | - | 0 W/m² | - |
| 1777526727 | 18.89° C | 98% | 1013.3 hPa | 0 mm | - | 0 W/m² | - |
| 1777526422 | 18.89° C | 98% | 1012.9 hPa | 1.27 mm | - | 0 W/m² | - |
| 1777526117 | 18.89° C | 98% | 1012.8 hPa | 1.27 mm | - | 0 W/m² | - |
| 1777525814 | 18.89° C | 98% | 1012.7 hPa | 0 mm | - | 0 W/m² | - |
| 1777525512 | 18.89° C | 98% | 1012.8 hPa | 1.78 mm | - | 0 W/m² | - |
| 1777525208 | 18.89° C | 98% | 1012.8 hPa | 3.56 mm | - | 0 W/m² | - |
* Rain latest hour (hover to see other rain measurements)
** Current wind speed in m/s (hover to see current wind gust speed)